STARLINK-1216, 45185

Orbit data source: Space-Track

STARLINK-1216, 45185 is a payload satellite owned by SpaceX/Seattle (US) in LEO that was launched on Mon, 17 Feb 2020 UTC via an FALCON 9 launch vehicle from the Air Force Eastern Test Range (AFETR). Payload-class satellites include a variety of spacecraft equipped with specific instruments for various scientific and technological missions. These include communications satellites like Starlink; space stations such as the ISS; scientific satellites like the Hubble; Earth observation satellites from companies like Planet Labs, Umbra, and HawkEye 360; GPS; miniature CubeSats for education and research; and military/defense satellites.

Loading next visibility...
Identifier
45185, 2020-012H
Orbit
LEO
Country
Flag of USUS
Related business
Manufacturer
SpaceX/Seattle
Mission
Operational Commercial Communications
Bus & Motor
STARLINK, Unknown motor
Mass
260 kg wet, ~248 kg dry
Launch date (UTC)
2020-02-17 (6 years ago)
Launch vehicle
FALCON 9
Launch site
Air Force Eastern Test Range (AFETR)
Object type
Payload
Rocket body
Debris
Shape & HBR
Box + 1 Pan, 10.1 m
Radar Cross Section
13.562 m², Large (>1 m²)

Expand to show TLE details & history
Last TLE update: 1 day ago

TLE from 1 day ago
0 STARLINK-1216
1 45185U 20012H   26073.12043592  .00001105  00000-0  49439-4 0  9992
2 45185  53.1621  18.6483 0001341  92.7462 267.3693 15.30190696335571
Epoch: 2026-03-14T02:53Z
TLE epoch observation values (Epoch: 2026-03-14T02:53:25.663Z)
Latitude
0.00004°
Longitude
163.54522°
Altitude
476.185 km
Speed
7.629 km/s
True Right ascension
01h 14m 35s
True Declination
0° 00' 00"
Sunlit
Object was in daylight at epoch
Visualization orbit readout
Latitude
Unknown
Longitude
Unknown
Altitude
Unknown
Speed
Unknown
Apparent Right ascension
Unknown
Apparent Declination
Unknown
Sunlit
N/A
Visualization observer readout
Local Sidereal Time
13:40:02
Azimuth
Unknown
Elevation
Unknown
Doppler factor
Unknown
Orbital elements
Apogee altitude
476.418 km
Perigee altitude
474.58 km
Semi-major axis
6,853.636 km
Eccentricity
0.00013
Inclination
53.1621°
RAAN
18.6483°
Arg. of periapsis
92.7462°
True anomaly
267.35395°
Mean anomaly
267.3693°
Eccentric anomaly
267.36162°
Mean motion
3.82527 °/min
Orbital period
94.11 mins
BSTAR
0.000049439
Loading maneuver chart data...
Computing Atmospheric mass density...
Loading historical data...
Loading historical data...
Loading historical data...
Loading historical data...
Loading historical data...
Loading historical data...
Loading historical data...

Documentation

Showing up to 5 results
|